, AK

(GMT )
Tin City

Weather History for PATC - December, 2012

Change the Weather History Date:

Thursday, December 13, 2012

  Actual Average Record
Temperature  
Mean Temperature -10 °F -  
Max Temperature -8 °F 11 °F 44 °F (2000)
Min Temperature -13 °F 0 °F -17 °F (2005)
Degree Days  
Heating Degree Days 76    
Moisture  
Dew Point -14 °F    
Average Humidity 84    
Maximum Humidity 92    
Minimum Humidity 77    
Precipitation  
Precipitation 0.00 in - - ()
Sea Level Pressure  
Sea Level Pressure 29.64 in    
Wind  
Wind Speed 31 mph (NNE)    
Max Wind Speed 45 mph    
Max Gust Speed 48 mph    
Visibility 6 miles    
Events Snow    
Averages and records for this station are not official NWS values.
T = Trace of Precipitation, MM = Missing Value Source: NWS Daily Summary

Daily Weather History Graph

Daily Weather History Graph

Search for Another Location

Airport or City:

Trip Planner

Search our weather history database for the weather conditions in past years. The results will help you decide how hot, cold, wet, or windy it might be!

Date:

Astronomy

Dec. 13, 2012 Rise Set
Actual Time 12:25 PM AKST 3:46 PM AKST
Civil Twilight 10:54 AM AKST 5:18 PM AKST
Nautical Twilight 9:39 AM AKST 6:32 PM AKST
Astronomical Twilight 8:36 AM AKST 7:36 PM AKST
Moon 12:24 PM AKST (12/13) 5:09 PM AKST (12/13)
Length of Visible Light 6h 24m
Length of Day
3h 20m
New Moon, 0% of the Moon is Illuminated
Dec 13
New Moon
Dec 19
First Quarter
Dec 28
Full
Jan 4
Last Quarter
Jan 11
New

Hourly Weather History & Observations

Time (AKST) Temp. Windchill Dew Point Humidity Pressure Visibility Wind Dir Wind Speed Gust Speed Precip Events Conditions
12:55 AM -9.9 °F -43.9 °F -13.5 °F 84% 29.50 in 0.8 mi NNE 44.9 mph 48.3 mph N/A Snow Light Snow
1:16 AM -9.4 °F -42.9 °F -13.0 °F 84% 29.50 in 1.0 mi NNE 43.7 mph - N/A Snow Light Snow
1:36 AM -9.4 °F -42.9 °F -13.0 °F 84% 29.51 in 1.8 mi NNE 43.7 mph - N/A Snow Light Snow Showers
1:55 AM -10.3 °F -43.5 °F -13.9 °F 84% 29.52 in 4.0 mi NNE 41.4 mph - N/A   Scattered Clouds
3:41 AM -9.4 °F -41.9 °F -14.8 °F 77% 29.56 in 1.5 mi NNE 40.3 mph 44.9 mph N/A   Scattered Clouds
3:55 AM -10.5 °F -41.7 °F -14.4 °F 83% 29.57 in 3.0 mi NNE 34.5 mph 42.6 mph N/A   Mostly Cloudy
4:46 AM -11.2 °F -43.0 °F -14.8 °F 84% 29.59 in 1.5 mi North 35.7 mph - N/A   Mostly Cloudy
4:55 AM -10.5 °F -41.3 °F -14.4 °F 83% 29.59 in 1.0 mi North 33.4 mph - N/A Snow Light Snow
5:21 AM -11.2 °F -42.3 °F -14.8 °F 84% 29.60 in 1.5 mi North 33.4 mph - N/A   Mostly Cloudy
5:41 AM -11.2 °F -41.9 °F -14.8 °F 84% 29.61 in 10.0 mi NNE 32.2 mph - N/A   Scattered Clouds
5:55 AM -11.0 °F -41.2 °F -14.6 °F 84% 29.61 in 10.0 mi NNE 31.1 mph - N/A   Clear
6:55 AM -11.0 °F -37.9 °F -14.6 °F 84% 29.64 in 10.0 mi NNE 23.0 mph - N/A   Clear
7:55 AM -11.0 °F -38.4 °F -14.8 °F 83% 29.64 in 10.0 mi NNE 24.2 mph - N/A   Clear
8:55 AM -11.4 °F -35.4 °F -15.5 °F 82% 29.66 in 10.0 mi North 17.3 mph - N/A   Clear
9:55 AM -10.8 °F -35.3 °F -14.6 °F 83% 29.68 in 10.0 mi North 18.4 mph - N/A   Clear
10:55 AM -10.8 °F -33.2 °F -15.0 °F 82% 29.68 in 10.0 mi NNE 15.0 mph - N/A   Clear
11:55 AM -10.8 °F -37.7 °F -15.0 °F 82% 29.68 in 10.0 mi North 23.0 mph - N/A   Clear
12:55 PM -12.3 °F -39.0 °F -15.9 °F 84% 29.69 in 10.0 mi NNE 21.9 mph - N/A   Clear
2:55 PM -11.7 °F -34.4 °F -15.2 °F 85% 29.69 in 10.0 mi NNE 15.0 mph - N/A   Clear
3:55 PM -13.0 °F -36.8 °F -16.6 °F 84% 29.68 in 10.0 mi NE 16.1 mph - N/A   Clear
4:55 PM -11.4 °F -36.0 °F -15.2 °F 83% 29.68 in 10.0 mi NNE 18.4 mph - N/A   Partly Cloudy
5:55 PM -12.5 °F -35.3 °F -15.5 °F 86% 29.68 in 10.0 mi NE 15.0 mph - N/A   Clear
6:55 PM -13.4 °F -33.8 °F -17.5 °F 82% 29.69 in 4.0 mi NE 11.5 mph - N/A   Partly Cloudy
7:01 PM -13.0 °F -34.3 °F -16.6 °F 84% 29.69 in 1.2 mi NE 12.7 mph - N/A Snow Light Snow Showers
7:21 PM -13.0 °F -35.2 °F -14.8 °F 92% 29.69 in 10.0 mi ENE 13.8 mph - N/A Snow Light Snow Showers
7:55 PM -10.7 °F -35.7 °F -13.2 °F 89% 29.68 in 10.0 mi NNE 19.6 mph - N/A   Clear
8:55 PM -9.2 °F -34.4 °F -12.6 °F 85% 29.68 in 2.5 mi NNE 20.7 mph - N/A   Clear
9:26 PM -9.4 °F -35.8 °F -13.0 °F 84% 29.67 in 1.5 mi North 23.0 mph - N/A   Scattered Clouds
9:46 PM -9.4 °F -36.8 °F -13.0 °F 84% 29.67 in 5.0 mi North 25.3 mph - N/A   Partly Cloudy
9:55 PM -9.0 °F -35.3 °F -12.6 °F 84% 29.68 in 3.0 mi North 23.0 mph - N/A   Partly Cloudy
10:55 PM -8.7 °F -34.8 °F -12.1 °F 85% 29.67 in 4.0 mi North 23.0 mph - N/A   Clear
11:06 PM -9.4 °F -35.8 °F -11.2 °F 92% 29.67 in 2.5 mi North 23.0 mph - N/A   Clear
11:41 PM -9.4 °F -32.1 °F -13.0 °F 84% 29.68 in 1.2 mi North 16.1 mph - N/A   Mostly Cloudy
11:55 PM -8.9 °F -32.1 °F -12.1 °F 86% 29.69 in 4.0 mi NNE 17.3 mph - N/A   Scattered Clouds